Flag for Canada Weather past 2 weeks in St. Catharines, Ontario, Canada

Now
0 °F

Passing clouds.


Feels Like: -14 °F
Forecast: 0 / 20 °F
Wind: 7 mph from Southwest

Location: Saint Catharines Airport

Current Time: Feb 28, 2015 at 7:57:02 AM

Latest Report: Feb 28, 2015 at 7:00 AM


Visibility: 15 mi

Pressure: 30.78 "Hg

Humidity: 78%

Dew point: -6 °F

Location of St. CatharinesLocation

Historic Weather in St. Catharines — Graph

°F

St. Catharines temperature yesterday

Maximum temperature yesterday: 14 °F (at 3:00 PM)
Minimum temperature yesterday: 1 °F (at 8:00 AM)
Average temperature yesterday: 9 °F

Past Weeks' High & Low Weather Summary

 TemperatureHumidityPressure
High25 °F (Feb 22, 2:00 PM)93% (Feb 21, 11:00 AM)30.66 "Hg (Feb 21, 11:00 AM)
Low-8 °F (Feb 20, 7:00 AM)37% (Feb 17, 2:00 PM)29.56 "Hg (Feb 14, 12:00 PM)
Average9 °F66%30.14 "Hg
* Reported Feb 12 9:00 PM — Feb 27 9:00 PM, St. Catharines, Weather by CustomWeather, © 2015

Note: Actual official high and low records may vary slightly from our data, if they occured in-between our weather recording intervals... More about our weather records

Advertising

St. Catharines weather history for previous 24 hours

 ConditionsComfort  
Time TempWeatherWind HumidityBarometerVisibility
9:00 PM
Fri, Feb 27
7 °FClear.10 mph72%30.66 "Hg15 mi
8:00 PM9 °FClear.10 mph66%30.64 "Hg15 mi
7:00 PM9 °FPassing clouds.10 mph56%30.63 "Hg15 mi
6:00 PM10 °FPassing clouds.12 mph56%30.60 "Hg15 mi
5:00 PM12 °FPassing clouds.15 mph52%30.59 "Hg15 mi
4:00 PM14 °FPassing clouds.14 mph52%30.58 "Hg15 mi
3:00 PM14 °FPassing clouds.16 mph52%30.57 "Hg15 mi
2:00 PM12 °FPassing clouds.12 mph57%30.55 "Hg15 mi
1:00 PM10 °FPassing clouds.18 mph61%30.55 "Hg15 mi
12:00 PM10 °FPassing clouds.10 mph56%30.56 "Hg15 mi
11:00 AM10 °FPassing clouds.12 mph56%30.54 "Hg15 mi
10:00 AM7 °FPassing clouds.10 mph66%30.53 "Hg15 mi
9:00 AM5 °FLight snow. More clouds than sun.12 mph72%30.51 "Hg8 mi
8:45 AM5 °FLight snow. Low clouds.10 mph72%30.50 "Hg5 mi
8:00 AM1 °FPartly sunny.10 mph78%30.47 "Hg10 mi
7:00 AM3 °FLight snow. Partly sunny.8 mph78%30.45 "Hg8 mi
Weather by CustomWeather, © 2015

See weather overviewHow to use our weather pages